This is the latest recevied weather packets stored in our database for station/object KC9Q. If no packets are shown the sender has not sent any weather packets the latest 10 day(s).
| Time | Temp. | Humidity | Pressure | Rain* | Wind** | Luminosity | Snow |
|---|---|---|---|---|---|---|---|
| 1778085636 | 12.78° C | 76% | 1014.8 hPa | 0 mm | - | 340 W/m² | - |
| 1778085332 | 12.78° C | 75% | 1014.7 hPa | 0 mm | - | 341 W/m² | - |
| 1778085028 | 12.78° C | 74% | 1014.8 hPa | 0 mm | - | 416 W/m² | - |
| 1778084724 | 12.78° C | 75% | 1014.9 hPa | 0 mm | - | 426 W/m² | - |
| 1778084422 | 12.22° C | 77% | 1014.8 hPa | 0 mm | - | 845 W/m² | - |
| 1778084119 | 12.78° C | 74% | 1014.8 hPa | 0 mm | - | 586 W/m² | - |
| 1778083816 | 12.22° C | 76% | 1014.7 hPa | 0 mm | - | 1041 W/m² | - |
| 1778083513 | 12.22° C | 73% | 1014.6 hPa | 0 mm | - | 505 W/m² | - |
| 1778083210 | 12.22° C | 76% | 1015 hPa | 0 mm | - | 469 W/m² | - |
| 1778082908 | 12.22° C | 76% | 1014.8 hPa | 0 mm | - | 469 W/m² | - |
| 1778081794 | 11.67° C | 75% | 1015.1 hPa | 0 mm | - | 363 W/m² | - |
| 1778081492 | 11.67° C | 75% | 1014.9 hPa | 0 mm | - | 306 W/m² | - |
| 1778081189 | 11.67° C | 74% | 1014.9 hPa | 0 mm | - | 265 W/m² | - |
| 1778080886 | 11.67° C | 78% | 1015 hPa | 0 mm | - | 363 W/m² | - |
| 1778080585 | 11.67° C | 75% | 1014.8 hPa | 0 mm | - | 398 W/m² | - |
| 1778080281 | 11.67° C | 79% | 1014.5 hPa | 0 mm | - | 402 W/m² | - |
| 1778079978 | 11.67° C | 76% | 1014.8 hPa | 0 mm | - | 355 W/m² | - |
| 1778079675 | 11.11° C | 77% | 1014.8 hPa | 0 mm | - | 316 W/m² | - |
| 1778079372 | 11.11° C | 77% | 1014.9 hPa | 0 mm | - | 320 W/m² | - |
| 1778079069 | 11.11° C | 77% | 1014.9 hPa | 0 mm | - | 268 W/m² | - |
| 1778078766 | 11.11° C | 79% | 1015 hPa | 0 mm | - | 230 W/m² | - |
| 1778078462 | 11.67° C | 81% | 1015 hPa | 0 mm | - | 245 W/m² | - |
| 1778078161 | 11.67° C | 83% | 1014.8 hPa | 0 mm | - | 303 W/m² | - |
| 1778077858 | 11.67° C | 79% | 1014.9 hPa | 0 mm | - | 276 W/m² | - |
| 1778077556 | 11.67° C | 78% | 1014.6 hPa | 0 mm | - | 266 W/m² | - |
* Rain latest hour (hover to see other rain measurements)
** Current wind speed in m/s (hover to see current wind gust speed)